Regional Weather Roundup
Issued by NWS

Home | Current Version | Previous Version | Graphics & Text | Print | Product List | Glossary On
Versions: 1 2 3 4 5 6 7 8 9 10 11 12 13 14 15 16 17 18 19 20 21 22 23 24 25 26 27 28 29 30 31 32 33 34 35 36 37 38 39 40 41 42 43 44 45 46 47 48 49 50
517
ASUS43 KOAX 181310
RWRNE

WEATHER ROUNDUP FOR NEBRASKA
NATIONAL WEATHER SERVICE OMAHA NE
700 AM CST MON DEC 18 2017

NOTES: SATELLITE DATA IS BEING USED TO AUGMENT CLOUD COVER ABOVE
       12000 FEET.
       "FAIR" INDICATES FEW OR NO CLOUDS BELOW 12,000 FEET WITH NO
       SIGNIFICANT WEATHER AND/OR OBSTRUCTIONS TO VISIBILITY.


NEZ001>004-019>022-054>056-181400-
NEBRASKA PANHANDLE

CITY           SKY/WX    TMP DP  RH WIND       PRES   REMARKS
SCOTTSBLUFF    CLOUDY    22  14  71 E3        29.90S
ALLIANCE       CLOUDY    16  12  84 SW7       29.88S WCI   6
CHADRON        CLOUDY    18  13  80 S5        29.85F WCI  11
GORDON         FAIR      25  17  70 SW6       29.84S WCI  18
KIMBALL        CLOUDY    24  19  83 SW9       29.92S WCI  14
SIDNEY         CLOUDY    17  14  88 W10       29.93S WCI   5
$$

NEZ057>060-069>072-079>082-181400-
SOUTHWEST NEBRASKA

CITY           SKY/WX    TMP DP  RH WIND       PRES   REMARKS
NORTH PLATTE   CLOUDY    19  16  88 NW5       29.94S WCI  12
IMPERIAL       CLOUDY    19  16  88 W5        29.97R WCI  12
LEXINGTON      CLEAR     21  17  86 NW5       29.95S WCI  14
MCCOOK         CLOUDY    22  19  89 W12       29.98S WCI  10
OGALLALA       CLOUDY    20  18  88 W9        29.94F WCI  10
$$

NEZ005>010-023>029-035>040-094-181400-
NORTH CENTRAL NEBRASKA

CITY           SKY/WX    TMP DP  RH WIND       PRES   REMARKS
VALENTINE      CLOUDY    24  19  81 SW8       29.84F WCI  15
AINSWORTH      CLEAR     27  22  82 SW7       29.85S WCI  19
BROKEN BOW     CLOUDY    28  19  69 W9        29.91R WCI  19
O`NEILL        CLOUDY    28  25  89 SW5       29.87R WCI  23
ORD            CLOUDY    28  21  75 SW3       29.90R
THEDFORD       CLOUDY    29  19  67 W5        29.89S WCI  24
$$

NEZ041-046>049-061>064-073>077-083>087-181400-
SOUTH CENTRAL NEBRASKA

CITY           SKY/WX    TMP DP  RH WIND       PRES   REMARKS
GRAND ISLAND   CLEAR     29  24  82 W9        29.94S WCI  20
AURORA         CLEAR     27  24  88 W10       29.93S WCI  17
HASTINGS       CLOUDY    25  21  85 SW7       29.96R WCI  17
HEBRON         CLOUDY    28  26  89 SW8       29.99R WCI  20
HOLDREGE       CLEAR     25  23  91 W8        29.96S WCI  16
KEARNEY        CLOUDY    28  23  81 SW7       29.95S WCI  21
YORK           CLEAR     27  27 100 W9        29.94R WCI  17
$$

NEZ011>018-030>034-042>045-181400-
NORTHEAST NEBRASKA

CITY           SKY/WX    TMP DP  RH WIND       PRES   REMARKS
NORFOLK        CLOUDY    30  25  81 W9        29.87R WCI  22
ALBION         CLOUDY    31  25  78 W6        29.89S WCI  25
BLAIR          CLEAR     33  30  88 S18       29.90S WCI  22
COLUMBUS       CLOUDY    28  26  92 SW12      29.91S WCI  18
FREMONT        CLOUDY    29  26  90 SW8       29.91F WCI  21
TEKAMAH        CLOUDY    21  19  92 SE7       29.90S WCI  12
WAYNE          CLOUDY    27  26  96 CALM      29.87R
$$

NEZ050>053-065>068-078-088>093-181400-
SOUTHEAST NEBRASKA

CITY           SKY/WX    TMP DP  RH WIND       PRES   REMARKS
LINCOLN        CLEAR     31  27  85 SW9       29.96S WCI  23
OMAHA EPPLEY   CLEAR     26  21  81 SE8       29.94S WCI  18
BEATRICE       CLEAR     30  28  93 SW8       29.97F WCI  22
FALLS CITY     CLEAR     31  28  89 S5        30.00S WCI  26
NEBRASKA CITY  CLEAR     30  30 100 SW14      29.96S WCI  19
PLATTSMOUTH    CLEAR     31  29  95 S14       29.93F WCI  20
$$

NEZ044-045-051>053-067-181400-
OMAHA AREA

CITY           SKY/WX    TMP DP  RH WIND       PRES   REMARKS
OMAHA EPPLEY   CLEAR     26  21  81 SE8       29.94S WCI  18
BLAIR          CLEAR     33  30  88 S18       29.90S WCI  22
FREMONT        CLOUDY    29  26  90 SW8       29.91F WCI  21
MILLARD        CLEAR     26  24  93 SE3       29.94S FOG
OFFUTT AFB     CLEAR     23  21  92 CALM      29.94S
PLATTSMOUTH    CLEAR     31  29  95 S14       29.93F WCI  20
WAHOO          FAIR      31  28  86 SW7       29.92S WCI  24
$$




USA.gov is the U.S. government's official web portal to all federal, state and local government web resources and services.